Location: Dunedin
(45.8670°S, 170.5000°E)
Time: 18:21:13
(UTC+13:00)

Cosmos 1862 - Pass Details

Date: 24 January 2019
Orbit: 540 x 556 km, 82.5° (Epoch: 20 February)

Event Time Altitude Azimuth Distance (km) Brightness Sun altitude
Rises 22:21:02 0° 189° (S) 2,763 7.7 -9.6°
Reaches altitude 10° 22:23:14 10° 187° (S) 1,857 6.8 -9.9°
Maximum altitude 22:27:20 83° 99° (E) 565 3.3 -10.4°
Drops below altitude 10° 22:31:21 10° 10° (N) 1,820 5.5 -10.9°
Enters shadow 22:31:24 10° 10° (N) 1,840 5.5 -10.9°
